Starlink 32232

operational
NORAD ID: 60431 Int'l Des: 2024-144 Owner: SPXS Country: US Constellation: starlink
LEOCIRCULAR

Über Starlink 32232

Beschreibung wird geladen...

Live-Position

3D-Globus wird geladen...

Nächste Überflüge

Höhenverlauf

Altitude vs Time

uPlot chart will show altitude changes over time

Zweizeiliger Elementsatz

1 60431U 24144G 25303.49933757 -.00000529 00000-0 -57588-5 0 9995
2 60431 53.1609 102.0510 0001109 102.5904 257.5221 15.30188138 69378
Epoch: 30. Okt. 2025 • Age: 25 hours

Aktueller Status

Höhe 475.7 km
Geschwindigkeit 7.63 km/s
Subsatellitenpunkt 5.28°N, 135.36°W
Startdatum 12. Aug. 2024
Alter 1.2 years
Typ internet

Technische Details

Klassifizierung Payload
Masse 730.00 kg
Trockenmasse 700.00 kg
Gesamtmasse 730.00 kg
Länge 0.30 m
Durchmesser 4.10 m
Spannweite 29.00 m
Form Box + pan
Hersteller SPXS
Bus-Typ Starlink V2M
Phasenstatus In Orbit
Besitzer/Staat SPXS/US

Große Konstellationen

Loading constellations...